Regional Weather Roundup
Issued by NWS

Home | Current Version | Previous Version | Graphics & Text | Print | Product List | Glossary Off
Versions: 1 2 3 4 5 6 7 8 9 10 11 12 13 14 15 16 17 18 19 20 21 22 23 24 25 26 27 28 29 30 31 32 33 34 35 36 37 38 39 40 41 42 43 44 45 46 47 48 49 50

000
ASUS43 KTOP 071659
RWRKS

WEATHER ROUNDUP FOR KANSAS
NATIONAL WEATHER SERVICE GOODLAND KS
1200 PM CDT TUE JUL 07 2015

NOTE:  "FAIR" INDICATES FEW OR NO CLOUDS BELOW 12,000 FEET WITH NO
SIGNIFICANT WEATHER AND/OR OBSTRUCTIONS TO VISIBILITY.

KSZ001>006-013>018-027>032-041>047-071800-
NORTHWEST KANSAS

CITY           SKY/WX    TMP DP  RH WIND       PRES   REMARKS
GOODLAND       SUNNY     70  46  42 E13       30.21F
HAYS           SUNNY     72  46  40 E18G24    30.17S
HILL CITY      SUNNY     74  49  41 NE16G22   30.19S HAZE
RUSSELL        MOSUNNY   72  51  47 E16       30.15S
$$

KSZ061>065-074>080-084>089-071800-
SOUTHWEST KANSAS

CITY           SKY/WX    TMP DP  RH WIND       PRES   REMARKS
DODGE CITY     PTSUNNY   69  51  52 E18G24    30.15F HAZE
ELKHART          N/A     70  52  53 NE13        N/A
GARDEN CITY    MOSUNNY   70  51  51 E14G23    30.17F HAZE
GREAT BEND     MOSUNNY   70  48  46 NE18G25   30.16S
LIBERAL        MOSUNNY   68  55  64 NE16      30.18S
$$

KSZ066>073-081>083-090>101-071800-
SOUTHEAST KANSAS

CITY           SKY/WX    TMP DP  RH WIND       PRES   REMARKS
CHANUTE        LGT RAIN  64  62  93 N7        30.06R FOG
COFFEYVILLE    CLOUDY    65  62  90 N14       30.03S FOG
HUTCHINSON     CLOUDY    65  53  65 NE10      30.12R
MEDICINE LODGE   N/A     66  62  87 NE16      30.12R
NEWTON         CLOUDY    64  54  68 NE10      30.13R
PARSONS        CLOUDY    65  62  90 N9G16     30.05S FOG
WICHITA INTL   CLOUDY    68  60  75 NE15      30.09R HAZE
WICHITA JABRA  CLOUDY    67  60  78 NE16      30.09R
WINFIELD       CLOUDY    66  62  87 NE9       30.08R FOG
$$

KSZ007>012-019>026-033>040-048>060-102>105-071800-
NORTHEAST KANSAS

CITY           SKY/WX    TMP DP  RH WIND       PRES   REMARKS
CONCORDIA      SUNNY     69  53  56 NE15G24   30.16R
EMPORIA        CLOUDY    69  58  67 N16G22    30.08S
LAWRENCE       PTSUNNY   70  59  68 NE9G17    30.09R HAZE
MANHATTAN      PTSUNNY   70  51  51 NE15      30.12S
OLATHE IND     CLOUDY    69  61  75 N12       30.08S HAZE
OLATHE EXE     CLOUDY    67  58  72 NE15G21   30.07R HAZE
SALINA         MOSUNNY   73  48  41 NE18G28   30.13S
TOPEKA BILLARD PTSUNNY   70  59  68 N12       30.10R
TOPEKA FORBES  PTSUNNY   71  58  63 N10       30.09R
$$


USA.gov is the U.S. government's official web portal to all federal, state and local government web resources and services.